Tracking 30995 objects as of 5-Jul-2025
HD Live streaming from Space Station
objects crossing your sky now

COSMOS 2251 DEB

Track COSMOS 2251 DEB now!
10-day predictions


NORAD ID: 33782
Int'l Code: 1993-036X
Perigee: 749.9 km
Apogee: 781.8 km
Inclination: 74.0 °
Period: 100.0 minutes
Semi major axis: 7136 km
RCS: 0.035 m2 (small)
Launch date: June 16, 1993
Source: Commonwealth of Independent States (former USSR) (CIS)
Launch site: PLESETSK MISSILE AND SPACE COMPLEX (PKMTR)

Note: This is SATELLITE DEBRIS
Your satellite tracking list
Your tracking list is empty




NASA's NSSDC Master Catalog

Two Line Element Set (TLE):
1 33782U 93036X   25186.48331890  .00000718  00000-0  23604-3 0  9996
2 33782  74.0314 213.7830 0022371 320.0550 160.4036 14.39935104858198
Source of the keplerian elements: AFSPC